• In Hungary
  • List of Countries
  • For 7 days
  • Water Temperature
  • Satellite Maps
  • Weather Map
  • News
  • Weather Widgets
  • user-avatar
    Login

    Hourly Weather Zamczysko

    Today, 20 September, Thursday

    Time Temperature Precipitation Wind Pressure Humidity
    00:00 +20°C° 0 mm 2 mps 756 mmHg 70%
    01:00 +19°C° 0 mm 2 mps 756 mmHg 71%
    02:00 +19°C° 0 mm 2 mps 756 mmHg 73%
    03:00 +19°C° 0 mm 2 mps 756 mmHg 74%
    04:00 +18°C° 0 mm 2 mps 756 mmHg 76%
    05:00 +19°C° 0 mm 2 mps 757 mmHg 74%
    06:00 +20°C° 0 mm 2 mps 757 mmHg 73%
    07:00 +20°C° 0 mm 2 mps 757 mmHg 71%
    08:00 +23°C° 0 mm 2 mps 757 mmHg 65%
    09:00 +25°C° 0 mm 2 mps 757 mmHg 58%
    10:00 +27°C° 0 mm 2 mps 757 mmHg 52%
    11:00 +28°C° 0 mm 2 mps 757 mmHg 49%
    12:00 +29°C° 0 mm 3 mps 756 mmHg 46%
    13:00 +30°C° 0 mm 3 mps 756 mmHg 43%
    14:00 +30°C° 0 mm 2 mps 756 mmHg 44%
    15:00 +30°C° 0 mm 2 mps 756 mmHg 44%
    16:00 +29°C° 0 mm 2 mps 756 mmHg 45%
    17:00 +28°C° 0 mm 2 mps 756 mmHg 50%
    18:00 +26°C° 0 mm 2 mps 756 mmHg 54%
    19:00 +24°C° 0 mm 2 mps 756 mmHg 59%
    20:00 +23°C° 0 mm 2 mps 756 mmHg 60%
    21:00 +23°C° 0 mm 2 mps 756 mmHg 62%
    22:00 +21°C° 0 mm 2 mps 756 mmHg 63%
    23:00 +20°C° 0 mm 2 mps 756 mmHg 63%

    Tomorrow, 21 September, Friday

    Time Temperature Precipitation Wind Pressure Humidity
    00:00 +20°C° 0 mm 3 mps 755 mmHg 63%
    01:00 +19°C° 0 mm 3 mps 755 mmHg 63%
    02:00 +19°C° 0 mm 3 mps 755 mmHg 63%
    03:00 +18°C° 0 mm 3 mps 755 mmHg 63%
    04:00 +18°C° 0 mm 3 mps 755 mmHg 64%
    05:00 +18°C° 0 mm 3 mps 755 mmHg 63%
    06:00 +19°C° 0 mm 3 mps 755 mmHg 63%
    07:00 +19°C° 0 mm 4 mps 754 mmHg 62%
    08:00 +21°C° 0 mm 4 mps 754 mmHg 57%
    09:00 +23°C° 0 mm 5 mps 754 mmHg 51%
    10:00 +26°C° 0 mm 5 mps 753 mmHg 46%
    11:00 +27°C° 0 mm 5 mps 753 mmHg 43%
    12:00 +28°C° 0 mm 6 mps 752 mmHg 40%
    13:00 +29°C° 0 mm 6 mps 751 mmHg 37%
    14:00 +29°C° 0 mm 6 mps 751 mmHg 39%
    15:00 +28°C° 0 mm 5 mps 750 mmHg 40%
    16:00 +28°C° 0 mm 5 mps 750 mmHg 41%
    17:00 +27°C° 0 mm 5 mps 749 mmHg 45%
    18:00 +25°C° 0 mm 5 mps 749 mmHg 48%
    19:00 +23°C° 0 mm 5 mps 749 mmHg 52%
    20:00 +23°C° 0 mm 6 mps 749 mmHg 52%
    21:00 +23°C° 0 mm 6 mps 750 mmHg 53%
    22:00 +23°C° 0 mm 7 mps 750 mmHg 53%
    23:00 +20°C° 0.2 mm 6 mps 751 mmHg 59%

    Day after tomorrow, 22 September, Saturday

    Time Temperature Precipitation Wind Pressure Humidity
    00:00 +17°C° 0.2 mm 6 mps 751 mmHg 65%
    01:00 +15°C° 0.2 mm 5 mps 752 mmHg 70%
    02:00 +14°C° 0 mm 4 mps 753 mmHg 69%
    03:00 +14°C° 0 mm 4 mps 753 mmHg 68%
    04:00 +14°C° 0 mm 3 mps 754 mmHg 67%
    05:00 +14°C° 0 mm 4 mps 754 mmHg 65%
    06:00 +14°C° 0 mm 4 mps 755 mmHg 64%
    07:00 +14°C° 0 mm 4 mps 755 mmHg 62%
    08:00 +15°C° 0 mm 5 mps 755 mmHg 56%
    09:00 +15°C° 0 mm 6 mps 755 mmHg 50%
    10:00 +16°C° 0 mm 6 mps 755 mmHg 45%
    11:00 +17°C° 0 mm 6 mps 755 mmHg 43%
    12:00 +17°C° 0 mm 6 mps 755 mmHg 42%
    13:00 +18°C° 0 mm 7 mps 755 mmHg 40%
    14:00 +17°C° 0 mm 6 mps 755 mmHg 41%
    15:00 +17°C° 0 mm 6 mps 755 mmHg 42%
    16:00 +17°C° 0 mm 5 mps 754 mmHg 43%
    17:00 +16°C° 0 mm 5 mps 754 mmHg 44%
    18:00 +15°C° 0 mm 4 mps 755 mmHg 45%
    19:00 +16°C° 0 mm 3 mps 755 mmHg 45%
    20:00 +14°C° 0 mm 3 mps 755 mmHg 46%
    21:00 +14°C° 0 mm 3 mps 755 mmHg 47%
    22:00 +14°C° 0 mm 3 mps 755 mmHg 48%
    23:00 +13°C° 0 mm 3 mps 755 mmHg 51%

    23 September, Sunday

    Time Temperature Precipitation Wind Pressure Humidity
    00:00 +12°C° 0 mm 3 mps 755 mmHg 55%
    01:00 +11°C° 0 mm 4 mps 755 mmHg 58%
    02:00 +11°C° 0 mm 4 mps 755 mmHg 60%
    03:00 +10°C° 0 mm 4 mps 755 mmHg 62%
    04:00 +10°C° 0 mm 4 mps 755 mmHg 64%
    05:00 +10°C° 0 mm 4 mps 755 mmHg 64%
    06:00 +10°C° 0 mm 5 mps 755 mmHg 63%
    07:00 +10°C° 0 mm 5 mps 755 mmHg 63%
    08:00 +11°C° 0 mm 6 mps 755 mmHg 57%
    09:00 +14°C° 0 mm 6 mps 755 mmHg 52%
    10:00 +15°C° 0 mm 7 mps 755 mmHg 46%
    11:00 +16°C° 0 mm 6 mps 755 mmHg 44%
    12:00 +16°C° 0 mm 6 mps 754 mmHg 42%
    13:00 +17°C° 0 mm 6 mps 754 mmHg 39%
    14:00 +17°C° 0 mm 5 mps 753 mmHg 40%
    15:00 +17°C° 0 mm 5 mps 753 mmHg 41%
    16:00 +18°C° 0 mm 4 mps 752 mmHg 42%
    17:00 +17°C° 0 mm 4 mps 751 mmHg 45%
    18:00 +16°C° 0 mm 3 mps 751 mmHg 47%
    19:00 +14°C° 0 mm 3 mps 750 mmHg 50%
    20:00 +14°C° 1.7 mm 4 mps 749 mmHg 60%
    21:00 +13°C° 1.7 mm 5 mps 748 mmHg 71%
    22:00 +12°C° 1.7 mm 5 mps 746 mmHg 81%
    23:00 +11°C° 3.4 mm 6 mps 745 mmHg 84%

    24 September, Monday

    Time Temperature Precipitation Wind Pressure Humidity
    00:00 +11°C° 3.4 mm 6 mps 743 mmHg 86%
    01:00 +11°C° 3.4 mm 6 mps 741 mmHg 88%
    02:00 +13°C° 3.2 mm 6 mps 740 mmHg 88%
    03:00 +13°C° 3.2 mm 6 mps 738 mmHg 89%
    04:00 +14°C° 3.2 mm 6 mps 737 mmHg 89%
    05:00 +14°C° 2.3 mm 7 mps 737 mmHg 86%
    06:00 +15°C° 2.3 mm 7 mps 736 mmHg 83%
    07:00 +15°C° 2.3 mm 7 mps 736 mmHg 80%
    08:00 +15°C° 0.1 mm 7 mps 735 mmHg 78%
    09:00 +15°C° 0.1 mm 8 mps 735 mmHg 76%
    10:00 +13°C° 0.1 mm 8 mps 734 mmHg 74%
    11:00 +13°C° 0.3 mm 8 mps 734 mmHg 75%
    12:00 +13°C° 0.3 mm 9 mps 734 mmHg 76%
    13:00 +13°C° 0.3 mm 10 mps 734 mmHg 78%
    14:00 +12°C° 0.9 mm 11 mps 735 mmHg 78%
    15:00 +10°C° 0.9 mm 13 mps 735 mmHg 78%
    16:00 +9°C° 0.9 mm 15 mps 736 mmHg 79%
    17:00 +9°C° 0.3 mm 14 mps 738 mmHg 78%
    18:00 +9°C° 0.3 mm 14 mps 739 mmHg 77%
    19:00 +9°C° 0.3 mm 13 mps 741 mmHg 77%
    20:00 +9°C° 0.3 mm 12 mps 742 mmHg 76%
    21:00 +9°C° 0.3 mm 12 mps 744 mmHg 76%
    22:00 +9°C° 0.3 mm 12 mps 746 mmHg 75%
    23:00 +8°C° 0.1 mm 11 mps 747 mmHg 73%

    25 September, Tuesday

    Time Temperature Precipitation Wind Pressure Humidity
    00:00 +8°C° 0.1 mm 11 mps 748 mmHg 72%
    01:00 +7°C° 0.1 mm 10 mps 750 mmHg 70%
    02:00 +6°C° 0 mm 9 mps 750 mmHg 70%
    03:00 +6°C° 0 mm 9 mps 751 mmHg 69%
    04:00 +6°C° 0 mm 8 mps 752 mmHg 69%
    05:00 +6°C° 0 mm 8 mps 752 mmHg 68%
    06:00 +6°C° 0 mm 8 mps 753 mmHg 67%
    07:00 +6°C° 0 mm 8 mps 754 mmHg 66%
    08:00 +7°C° 0.1 mm 9 mps 754 mmHg 61%
    09:00 +8°C° 0.1 mm 9 mps 755 mmHg 55%
    10:00 +10°C° 0.1 mm 9 mps 756 mmHg 49%
    11:00 +11°C° 0.1 mm 9 mps 756 mmHg 47%
    12:00 +11°C° 0.1 mm 9 mps 756 mmHg 45%
    13:00 +11°C° 0.1 mm 9 mps 757 mmHg 43%
    14:00 +11°C° 0 mm 9 mps 757 mmHg 43%
    15:00 +11°C° 0 mm 8 mps 757 mmHg 43%
    16:00 +10°C° 0 mm 7 mps 758 mmHg 44%
    17:00 +9°C° 0 mm 6 mps 758 mmHg 47%
    18:00 +8°C° 0 mm 5 mps 759 mmHg 50%
    19:00 +7°C° 0 mm 4 mps 760 mmHg 53%
    20:00 +6°C° 0 mm 4 mps 760 mmHg 54%
    21:00 +6°C° 0 mm 4 mps 760 mmHg 56%
    22:00 +6°C° 0 mm 4 mps 761 mmHg 57%
    23:00 +5°C° 0 mm 4 mps 761 mmHg 59%
    Show more